{"data":{"norad_id":59384,"intl_designator":"2024-062L","name":"STARLINK-31715","alt_names":[],"object_type":"PAYLOAD","status":"ACTIVE","operator":null,"country":"US","launch_date":"2024-04-02","launch_site_code":"AFWTR","launch_vehicle":null,"mission":null,"orbit_class":"UNKNOWN","rcs_meters":null,"size_class":null,"mass_kg":null,"dimensions":null,"purposes":["comms"],"wikipedia_slug":null,"has_3d_model":false,"image_url":null,"decayed_at":null,"tle_current":{"epoch":"2026-05-25T01:09:43.456032Z","epoch_age_seconds":74047,"freshness":"FRESH","line1":"1 59384U 24062L   26145.04841963 -.00001248  00000+0 -30025-4 0  9996","line2":"2 59384  53.1603 260.8899 0001255  90.3268 269.7877 15.30194365121368","mean_motion":15.30194365,"eccentricity":0.0001255,"inclination_deg":53.1603,"raan_deg":260.8899,"arg_perigee_deg":90.3268,"mean_anomaly_deg":269.7877,"bstar":-3.0025e-5,"rev_number":12136,"period_min":94.105692253023,"perigee_km":474.37179676897,"apogee_km":476.09199236151,"semimajor_km":6853.3688945652,"source":"CELESTRAK","updated_at":"2026-05-25T13:38:18.915165Z"}}}